DW8293 Weather Reports


Display with metric or nautical units.
time (UTC)temp
F
wind
direction
speed
MPH
gust
MPH
rain 1hr
in
rain 24hr
in
rain mn
in
humidity
%
barometer
mb
20260905232703 46 0 0.0 0.0 0.00 0.01 0.00 99 1004.3
20260905231803 45 0 0.0 0.0 0.00 0.01 0.00 99 1004.1
20260905230904 46 0 0.0 0.0 0.00 0.01 0.00 99 1004.1
20260905230003 47 360 0.0 2.0 0.00 0.01 0.00 99 1004.1
20260905225403 47 360 0.0 2.0 0.00 0.01 0.00 99 1004.1
20260905224503 47 360 0.0 2.0 0.00 0.01 0.00 99 1004.1
20260905223605 48 0 0.0 0.0 0.00 0.01 0.00 99 1003.9
20260905222703 48 360 0.0 2.0 0.00 0.01 0.00 99 1003.8
20260905221803 47 0 0.0 0.0 0.00 0.01 0.00 99 1003.6
20260905220903 46 0 0.0 0.0 0.00 0.01 0.00 99 1003.5
20260905220024 47 360 0.0 2.0 0.00 0.01 0.00 99 1003.4
20260905215405 47 360 0.0 2.0 0.00 0.01 0.01 99 1003.3
20260905214503 48 292 0.0 2.0 0.00 0.01 0.01 99 1003.1
20260905213605 49 301 1.0 2.0 0.00 0.02 0.01 99 1003.2
20260905212703 48 298 0.0 2.0 0.00 0.02 0.01 99 1003.0
20260905211826 49 292 1.0 2.0 0.00 0.02 0.01 99 1002.9
20260905210905 50 0 0.0 0.0 0.00 0.02 0.01 99 1002.7
20260905210027 49 0 0.0 0.0 0.00 0.02 0.01 99 1002.7
20260905205405 49 0 0.0 0.0 0.00 0.02 0.01 99 1002.5
20260905204505 50 0 0.0 0.0 0.00 0.04 0.01 99 1002.5
20260905203624 50 0 0.0 0.0 0.00 0.04 0.01 99 1002.1
20260905202705 51 0 0.0 0.0 0.00 0.04 0.01 99 1002.0
20260905201805 51 0 0.0 0.0 0.00 0.04 0.01 98 1001.8
20260905200903 51 0 0.0 0.0 0.00 0.05 0.01 98 1001.8
20260905200024 52 0 0.0 0.0 0.00 0.05 0.01 97 1001.8
20260905195405 51 0 0.0 0.0 0.00 0.06 0.01 96 1001.9
20260905194503 52 307 0.0 4.0 0.00 0.07 0.01 96 1001.7
20260905193603 53 329 2.0 4.0 0.00 0.07 0.01 96 1001.5
20260905192705 53 360 0.0 2.0 0.00 0.07 0.01 97 1001.4
20260905191825 53 0 0.0 0.0 0.00 0.08 0.01 96 1001.4
20260905190903 54 360 0.0 2.0 0.00 0.09 0.01 95 1001.2
20260905190003 55 360 1.0 2.0 0.00 0.11 0.01 95 1001.0
20260905185403 54 360 1.0 2.0 0.00 0.12 0.01 94 1001.4
20260905184503 55 0 0.0 0.0 0.00 0.14 0.01 94 1001.2
20260905183624 54 0 0.0 0.0 0.00 0.17 0.01 93 1001.1
20260905182726 54 0 0.0 0.0 0.00 0.19 0.01 93 1000.4
20260905181803 54 360 0.0 2.0 0.00 0.19 0.01 92 1000.4
20260905180905 55 360 1.0 2.0 0.00 0.19 0.01 92 1000.4
20260905180003 56 360 1.0 2.0 0.00 0.19 0.01 90 1000.3
20260905175405 56 360 0.0 2.0 0.00 0.19 0.01 88 1000.3
20260905174505 56 360 0.0 2.0 0.00 0.19 0.01 88 999.9
20260905173626 56 3 0.0 4.0 0.00 0.19 0.01 89 1000.1
20260905172724 56 22 1.0 2.0 0.01 0.19 0.01 90 999.7
20260905171805 56 26 1.0 2.0 0.01 0.19 0.01 90 999.7
20260905170903 56 29 2.0 4.0 0.01 0.19 0.01 89 999.2
20260905170003 56 60 2.0 6.0 0.01 0.19 0.01 89 999.3
20260905165403 56 67 2.0 6.0 0.01 0.19 0.01 87 999.0
20260905164503 56 40 2.0 6.0 0.01 0.19 0.01 87 998.8
20260905163603 57 15 2.0 8.0 0.01 0.19 0.01 85 998.7
20260905162724 58 337 4.0 13.0 0.00 0.18 0.00 81 998.6
20260905161804 62 301 6.0 13.0 0.00 0.18 0.00 67 998.7
20260905160903 64 280 3.0 7.0 0.00 0.19 0.00 55 998.1
20260905160003 65 282 3.0 8.0 0.00 0.19 0.00 54 998.0
20260905155424 64 276 2.0 8.0 0.00 0.19 0.00 56 998.1
20260905154503 62 276 3.0 7.0 0.00 0.21 0.00 57 997.9
20260905153605 62 282 4.0 8.0 0.00 0.25 0.00 57 998.0
20260905152705 63 281 3.0 8.0 0.00 0.25 0.00 58 997.8
20260905151824 65 322 2.0 2.0 0.00 0.25 0.00 53 997.6
20260905150903 65 334 1.0 2.0 0.00 0.25 0.00 51 997.6
20260905150003 65 2 2.0 2.0 0.00 0.25 0.00 52 997.5
20260905145403 66 360 0.0 4.0 0.00 0.25 0.00 52 997.4
20260905144503 66 342 2.0 4.0 0.00 0.25 0.00 52 997.3
20260905143603 66 313 2.0 4.0 0.00 0.25 0.00 50 997.2
20260905142724 66 257 1.0 2.0 0.00 0.25 0.00 50 997.3
20260905141824 66 270 1.0 4.0 0.00 0.25 0.00 50 997.1
20260905140904 65 267 2.0 4.0 0.00 0.25 0.00 50 997.1
20260905140024 64 267 2.0 6.0 0.00 0.25 0.00 53 997.0
20260905135403 65 238 2.0 7.0 0.00 0.25 0.00 51 996.9
20260905134505 63 247 4.0 7.0 0.00 0.25 0.00 53 996.8
20260905133603 64 254 4.0 9.0 0.00 0.25 0.00 53 996.9
20260905132724 68 256 1.0 6.0 0.00 0.25 0.00 48 996.7
20260905131805 65 239 4.0 9.0 0.00 0.25 0.00 53 996.7
20260905130903 66 241 4.0 7.0 0.00 0.25 0.00 51 996.4
20260905130003 66 212 2.0 6.0 0.00 0.25 0.00 52 996.7
20260905125405 64 243 3.0 6.0 0.00 0.25 0.00 54 996.4
20260905124503 64 249 3.0 6.0 0.00 0.25 0.00 58 996.6
20260905123605 61 246 4.0 6.0 0.00 0.25 0.00 60 996.4
20260905122725 62 251 2.0 4.0 0.00 0.25 0.00 60 996.6
20260905121803 62 290 2.0 6.0 0.00 0.25 0.00 59 996.5
20260905120903 64 340 2.0 4.0 0.00 0.25 0.00 58 996.5
20260905120003 64 351 0.0 2.0 0.00 0.25 0.00 53 996.2
20260905115404 63 323 1.0 4.0 0.00 0.25 0.00 54 996.4
20260905114504 63 302 2.0 6.0 0.00 0.25 0.00 56 996.3
20260905113626 64 335 0.0 4.0 0.00 0.25 0.00 54 996.2
20260905112703 62 288 2.0 4.0 0.00 0.25 0.00 57 996.3
20260905111803 62 284 0.0 4.0 0.00 0.25 0.00 58 996.2
20260905110903 62 346 2.0 7.0 0.00 0.25 0.00 59 996.3
20260905110003 62 304 2.0 7.0 0.00 0.25 0.00 63 996.1
20260905105403 62 299 0.0 4.0 0.00 0.25 0.00 59 996.1
20260905104504 62 320 2.0 9.0 0.00 0.25 0.00 60 995.9
20260905103603 62 45 6.0 9.0 0.00 0.25 0.00 61 995.6
20260905102703 62 16 1.0 4.0 0.00 0.25 0.00 63 995.8
20260905101803 62 335 2.0 7.0 0.00 0.25 0.00 63 995.8
20260905100904 63 33 2.0 4.0 0.00 0.25 0.00 64 995.7
20260905100005 63 1 2.0 6.0 0.00 0.25 0.00 63 995.6
20260905095403 63 339 2.0 6.0 0.00 0.25 0.00 62 995.8
20260905094503 60 329 4.0 6.0 0.00 0.25 0.00 68 995.4
20260905093605 60 320 0.0 6.0 0.00 0.25 0.00 72 995.5
20260905092704 59 310 4.0 6.0 0.00 0.25 0.00 73 995.4
20260905091803 59 300 3.0 6.0 0.00 0.25 0.00 76 995.5
20260905090903 59 286 2.0 7.0 0.00 0.25 0.00 79 995.3
20260905090003 57 291 3.0 6.0 0.00 0.25 0.00 85 995.2
20260905085424 57 291 4.0 6.0 0.00 0.25 0.00 85 995.1
20260905084504 56 285 3.0 6.0 0.00 0.25 0.00 89 995.4
20260905083603 55 277 3.0 6.0 0.00 0.25 0.00 90 995.2
20260905082703 55 270 2.0 4.0 0.00 0.25 0.00 91 995.1
20260905081804 55 268 1.0 4.0 0.00 0.25 0.00 92 994.9
20260905080903 54 255 1.0 4.0 0.00 0.25 0.00 92 995.0
20260905080004 54 263 1.0 4.0 0.00 0.25 0.00 93 994.7
20260905075403 54 267 2.0 4.0 0.00 0.25 0.00 93 994.9
20260905074524 54 270 1.0 4.0 0.00 0.25 0.00 94 994.5
20260905073603 54 270 2.0 2.0 0.00 0.25 0.00 95 994.7
20260905072704 54 270 0.0 4.0 0.00 0.25 0.00 96 994.4
20260905071803 53 270 1.0 4.0 0.00 0.25 0.00 96 994.4
20260905070904 53 261 1.0 4.0 0.00 0.25 0.00 98 994.5
20260905070003 52 274 2.0 4.0 0.00 0.25 0.00 99 994.4
20260905065404 52 292 1.0 4.0 0.00 0.25 0.00 99 994.3
20260905064503 52 279 2.0 4.0 0.00 0.25 0.00 99 994.4
20260905063603 51 292 2.0 4.0 0.00 0.25 0.00 99 994.3
20260905062703 51 288 2.0 4.0 0.00 0.25 0.00 99 994.2
20260905061803 51 263 2.0 4.0 0.00 0.25 0.00 99 994.2
20260905060903 51 247 0.0 2.0 0.00 0.25 0.00 99 994.0
20260905060025 51 247 0.0 2.0 0.00 0.25 0.00 99 993.9
20260905055403 51 247 0.0 2.0 0.00 0.25 0.00 99 993.6
20260905054505 51 247 0.0 2.0 0.00 0.25 0.00 99 993.8
20260905053603 51 250 1.0 2.0 0.00 0.25 0.00 99 993.7
20260905052703 51 267 2.0 2.0 0.00 0.25 0.00 99 993.7
20260905051804 51 270 0.0 2.0 0.00 0.25 0.00 99 993.6
20260905050904 51 0 0.0 0.0 0.00 0.25 0.00 99 993.5
20260905050004 50 270 0.0 2.0 0.00 0.25 0.00 99 993.3
20260905045405 50 270 0.0 2.0 0.00 0.25 0.00 99 993.4
20260905044504 50 0 0.0 0.0 0.00 0.25 0.00 99 993.3
20260905043605 51 270 0.0 2.0 0.00 0.25 0.00 99 993.4
20260905042724 51 255 2.0 4.0 0.00 0.25 0.00 99 993.3
20260905041824 51 266 1.0 2.0 0.00 0.25 0.00 99 993.3
20260905040903 51 270 2.0 2.0 0.00 0.25 0.00 99 993.0
20260905040003 51 272 2.0 4.0 0.00 0.25 0.00 99 993.1
20260905035403 51 283 2.0 4.0 0.00 0.25 0.00 99 993.2
20260905034505 51 292 1.0 2.0 0.00 0.25 0.00 99 993.1
20260905033624 51 292 1.0 2.0 0.00 0.25 0.00 99 993.1
20260905032724 51 292 0.0 2.0 0.00 0.25 0.00 99 992.9
20260905031803 51 292 0.0 2.0 0.00 0.25 0.00 99 993.1
20260905030903 51 292 0.0 2.0 0.00 0.25 0.00 98 992.8
20260905030005 51 292 0.0 2.0 0.00 0.25 0.00 98 992.9
20260905025403 51 292 1.0 2.0 0.00 0.25 0.00 98 992.8
20260905024503 51 292 1.0 4.0 0.00 0.25 0.00 98 992.9
20260905023605 51 292 1.0 2.0 0.00 0.25 0.00 98 993.0
20260905022724 51 292 0.0 2.0 0.00 0.25 0.00 98 992.6
20260905021805 51 292 1.0 2.0 0.00 0.25 0.00 98 992.5
20260905020903 51 292 1.0 2.0 0.00 0.25 0.00 98 992.6
20260905020026 51 292 1.0 2.0 0.00 0.25 0.00 98 992.4
20260905015403 51 292 2.0 2.0 0.00 0.25 0.00 98 992.4
20260905014505 51 292 0.0 2.0 0.00 0.25 0.00 99 992.5
20260905013626 51 292 0.0 2.0 0.00 0.25 0.00 99 992.4
20260905012705 51 292 1.0 2.0 0.00 0.25 0.00 99 992.3
20260905011824 51 292 0.0 2.0 0.00 0.25 0.00 99 992.4
20260905010905 51 292 0.0 2.0 0.00 0.25 0.00 99 992.4
20260905010003 51 292 0.0 2.0 0.00 0.25 0.00 99 992.3
20260905005403 51 292 1.0 2.0 0.00 0.25 0.00 99 992.3
20260905004524 51 292 0.0 4.0 0.00 0.25 0.00 99 992.3
20260905003603 51 292 0.0 2.0 0.00 0.25 0.00 99 992.1
20260905002703 51 292 0.0 2.0 0.00 0.25 0.00 99 992.3
20260905001803 51 292 0.0 2.0 0.00 0.25 0.00 99 992.2
20260905000903 52 292 1.0 2.0 0.00 0.25 0.00 99 992.0
20260905000024 52 292 1.0 2.0 0.00 0.25 0.00 99 991.8
20260904235426 52 292 0.0 2.0 0.00 0.25 0.00 99 992.0
20260904234505 51 0 0.0 0.0 0.00 0.25 0.00 99 992.2
20260904233603 51 0 0.0 0.0 0.00 0.25 0.00 99 992.1